Regional Weather Roundup
Issued by NWS

Home | Current Version | Previous Version | Graphics & Text | Print | Product List | Glossary On
Versions: 1 2 3 4 5 6 7 8 9 10 11 12 13 14 15 16 17 18 19 20 21 22 23 24 25 26 27 28 29 30 31 32 33 34 35 36 37 38 39 40 41 42 43 44 45 46 47 48 49 50
557
ASUS43 KOAX 200702
RWRNE

WEATHER ROUNDUP FOR NEBRASKA
NATIONAL WEATHER SERVICE OMAHA NE
200 AM CDT SUN AUG 20 2017

NOTES: SATELLITE DATA IS BEING USED TO AUGMENT CLOUD COVER ABOVE
       12000 FEET.
       "FAIR" INDICATES FEW OR NO CLOUDS BELOW 12,000 FEET WITH NO
       SIGNIFICANT WEATHER AND/OR OBSTRUCTIONS TO VISIBILITY.


NEZ001>004-019>022-054>056-200800-
NEBRASKA PANHANDLE

CITY           SKY/WX    TMP DP  RH WIND       PRES   REMARKS
SCOTTSBLUFF    CLEAR     58  48  69 CALM      29.95S
ALLIANCE       CLEAR     57  51  80 N9        29.95R
CHADRON        CLEAR     58  46  64 W5        29.94R
GORDON         FAIR      56  49  79 NW5       29.93S
KIMBALL        CLEAR     59  48  65 W8        30.04R
SIDNEY         CLEAR     61  54  77 SW6G16    29.99R
$$

NEZ057>060-069>072-079>082-200800-
SOUTHWEST NEBRASKA

CITY           SKY/WX    TMP DP  RH WIND       PRES   REMARKS
NORTH PLATTE   CLEAR     67  63  87 E7        29.87S
IMPERIAL       CLEAR     70  57  63 W8        29.89S
LEXINGTON      CLEAR     73  64  73 E9        29.88S
MCCOOK           N/A     73  63  70 SW10      29.86F
OGALLALA       CLEAR     63  59  87 CALM      29.90S
$$

NEZ005>010-023>029-035>040-094-200800-
NORTH CENTRAL NEBRASKA

CITY           SKY/WX    TMP DP  RH WIND       PRES   REMARKS
VALENTINE      CLEAR     67  58  72 W5        29.86S
AINSWORTH      CLEAR     65  61  86 SW5       29.87S
BROKEN BOW     CLEAR     67  63  87 SE6       29.88F
O`NEILL        CLOUDY    65  60  84 NE3       29.85S
ORD            CLOUDY    63  57  81 N3        29.84S
THEDFORD       CLEAR     64  58  80 CALM      29.90R
$$

NEZ041-046>049-061>064-073>077-083>087-200800-
SOUTH CENTRAL NEBRASKA

CITY           SKY/WX    TMP DP  RH WIND       PRES   REMARKS
GRAND ISLAND   CLOUDY    66  61  84 SE10      29.90F
AURORA         CLOUDY    65  61  86 E15       29.90F
HASTINGS       CLOUDY    66  61  84 E16G25    29.91F
HEBRON         CLOUDY    70  64  80 NE14G21   29.96R
HOLDREGE       CLOUDY    70  63  78 E8        29.90S
KEARNEY        PTCLDY    66  62  87 E16G24    29.91R
$$

NEZ011>018-030>034-042>045-200800-
NORTHEAST NEBRASKA

CITY           SKY/WX    TMP DP  RH WIND       PRES   REMARKS
NORFOLK        CLOUDY    73  57  57 W14       29.84R
ALBION         CLOUDY    67  60  78 SE6       29.85F
BLAIR          RAIN      70  65  85 N8        30.00R
COLUMBUS       LGT RAIN  67  62  84 SE10      29.89F
FREMONT        LGT RAIN  70  67  90 SE8       29.98R
TEKAMAH        RAIN      70  65  84 SE16      29.92F
WAYNE          CLOUDY    72  60  66 NE7       29.86R
$$

NEZ050>053-065>068-078-088>093-200800-
SOUTHEAST NEBRASKA

CITY           SKY/WX    TMP DP  RH WIND       PRES   REMARKS
LINCOLN        TSTM      68  63  84 SW6       30.03R
OMAHA EPPLEY   TSTM      72  66  81 N13G20    29.94F
BEATRICE       TSTM      66  65  96 NE15G32   30.01R
FALLS CITY     CLOUDY    72  70  93 CALM      29.90R
NEBRASKA CITY  RAIN      80  74  82 NW18G25   29.93R
PLATTSMOUTH    CLOUDY    75  68  79 NW10G16   29.96R
$$

NEZ044-045-051>053-067-200800-
OMAHA AREA

CITY           SKY/WX    TMP DP  RH WIND       PRES   REMARKS
OMAHA EPPLEY   TSTM      72  66  81 N13G20    29.94F
BLAIR          RAIN      70  65  85 N8        30.00R
FREMONT        LGT RAIN  70  67  90 SE8       29.98R
MILLARD        LGT RAIN  74  71  91 W9        29.98R
OFFUTT AFB     LGT RAIN  72  68  88 NW15      29.92S
PLATTSMOUTH    CLOUDY    75  68  79 NW10G16   29.96R
WAHOO          LGT RAIN  69  62  80 N3        29.99R
$$




USA.gov is the U.S. government's official web portal to all federal, state and local government web resources and services.